Location: アルンシュタイン
(50.0000°N, 10.0000°E)
Time: 16:45:08
(UTC+02:00)

Vanguard 1 - Pass Details

Date: 18 September 2024
Orbit: 649 x 3825 km, 34.3° (Epoch: 02 October)

Event Time Altitude Azimuth Distance (km) Brightness Sun altitude
Rises 16:18:37 0° 257° (WSW) 5,152 14.8 27.7°
Reaches altitude 10° 16:23:37 10° 243° (WSW) 3,556 14.7 27.1°
Maximum altitude 16:29:11 19° 201° (SSW) 2,281 13.1 26.3°
Drops below altitude 10° 16:33:16 10° 156° (SSE) 2,491 12.3 25.8°
Sets 16:36:00 0° 137° (SE) 3,195 12.6 25.4°
